Orbital Elements at Epoch 2459200.5 (2020-Dec-17.0) TDB
Reference: JPL 37 (heliocentric ecliptic J2000)
Element | Value | Uncertainty (1-sigma) | Units |
e | .1145772903693147 | 4.0787e-08 | |
a | 3.190547614740823 | 1.8821e-08 | au |
q | 2.824983314249539 | 1.2778e-07 | au |
i | 7.102306255705432 | 3.752e-06 | deg |
node | 82.38106473547758 | 3.4269e-05 | deg |
peri | 240.1148353649497 | 3.8508e-05 | deg |
M | 171.3716303784805 | 1.9891e-05 | deg |
tp | 2458209.593448013803 (2018-Apr-01.09344801) | 0.00011245 | TDB |
period | 2081.595173758851 5.70 | 1.8419e-05 5.043e-08 | d yr |
n | .1729442902915307 | 1.5303e-09 | deg/d |
Q | 3.556111915232107 | 2.0977e-08 | au |
|
| | Orbit Determination Parameters
Additional Information
|